Regional Weather Roundup
Issued by NWS Cleveland, OH

Home | Current Version | Previous Version | Graphics & Text | Print | Product List | Glossary On
Versions: 1 2 3 4 5 6 7 8 9 10 11 12 13 14 15 16 17 18 19 20 21 22 23 24 25 26 27 28 29 30 31 32 33 34 35 36 37 38 39 40 41 42 43 44 45 46 47 48 49 50
000
ASUS41 KCLE 030302
RWRCLE
OHIO REGIONAL WEATHER ROUNDUP
NATIONAL WEATHER SERVICE CLEVELAND, OH
1100 PM EDT SUN AUG 02 2015

NOTE: "FAIR" INDICATES FEW OR NO CLOUDS BELOW 12,000 FEET WITH NO
SIGNIFICANT WEATHER AND/OR OBSTRUCTIONS TO VISIBILITY.

OHZ001>008-015>018-024>027-034-035-043-044-030400-
   NORTHWEST OHIO

CITY           SKY/WX    TMP DP  RH WIND       PRES   REMARKS
DEFIANCE       CLEAR     80  64  58 SW18G26   29.74S
FINDLAY        CLEAR     78  61  55 S18       29.77F
TOLEDO EXPRESS PTCLDY    79  64  60 SW20G28   29.72S
TOLEDO EXEC    PTCLDY    80  62  54 S16G26    29.74S
LIMA           CLEAR     76  62  62 S15G23    29.81F
$$

OHZ009>014-019>023-028>033-038-089-030400-
   NORTHEAST OHIO

CITY           SKY/WX    TMP DP  RH WIND       PRES   REMARKS
CLE-HOPKINS    MOCLDY    78  61  55 S18G29    29.78F
CLE-LAKEFRONT  MOCLDY    81  61  50 S26G37    29.73F
CUY CO. ARPT   PTCLDY    81  64  57 S16       29.77F
LORAIN-ELYRIA  PTCLDY    77  59  53 SW17G25   29.78F
ASHTABULA      PTCLDY    78  61  55 S16G29    29.76F
AKRON-CANTON   PTCLDY    76  61  59 S16       29.84F
WOOSTER        CLEAR     74  62  66 SW12G20   29.84F
MANSFIELD      CLEAR     75  61  61 S17G25    29.84F
YOUNGSTOWN     MOCLDY    76  63  64 S13G20    29.83F
$$

OHZ042-051>053-060>062-070>072-077>081-030400-
  SOUTHWEST OHIO

CITY           SKY/WX    TMP DP  RH WIND       PRES   REMARKS
CINC-COVINGTON CLEAR     71  61  70 S6        29.91R
CINC-LUNKEN    CLEAR     67  65  93 CALM      29.90R
HAMILTON       CLEAR     69  63  81 SW3       29.89S
DAYTON         PTCLDY    76  61  59 S12       29.89R
WRIGHT-PAT AFB NOT AVBL
DAYTON GENERAL CLEAR     72  60  66 S5        29.89S
WILMINGTON     CLEAR     69  61  75 S8        29.90S
$$

OHZ036-037-039>041-045>050-054>059-063>069-073>076-082>088-030400-
  CENTRAL AND SOUTHEAST OHIO

CITY           SKY/WX    TMP DP  RH WIND       PRES   REMARKS
COLUMBUS       PTCLDY    75  61  61 S8        29.88S
OSU AIRPORT    CLEAR     76  61  59 S10       29.87F
BOLTON FIELD   CLEAR     72  63  74 S8        29.89F
RICKENBACK AFB CLEAR     71  62  73 S8        29.88S
NEWARK         CLEAR     74  63  68 S7        29.88F
MARION         CLEAR     74  60  61 S16       29.84F
LANCASTER      CLEAR     73  60  63 S5        29.90F
ZANESVILLE     CLEAR     72  61  68 S7        29.90F
NEW PHILLY     CLEAR     74  63  68 VRB3      29.88F
$$


USA.gov is the U.S. government's official web portal to all federal, state and local government web resources and services.